LAN286 SCEL-SCIE

Flight info

Callsign LAN286
Flight time 0h 48m
Altitude 30000
Route GELUS5B GELUS UQ809 ARUNI ARUNI8E
Aircraft A320/M-SDE3FGHIRWY/LB1

Departure

Time 2026-05-09 20:45
Airport Comodoro Arturo Merino Benítez International Airport (SCEL)

Arrival

Time 2026-05-09 21:33
Airport Carriel Sur International Airport (SCIE)
Time Latitude Longitude Altitude Speed Heading
2026-05-09 20:12 -33.39609 -70.79372 1561 ft 0 kts 177°
2026-05-09 20:30 -33.39596 -70.79372 1561 ft 2 kts 177°
2026-05-09 20:31 -33.39580 -70.79373 1561 ft 2 kts 177°
2026-05-09 20:31 -33.39564 -70.79374 1561 ft 2 kts 177°
2026-05-09 20:31 -33.39548 -70.79375 1561 ft 2 kts 177°
2026-05-09 20:31 -33.39531 -70.79376 1561 ft 2 kts 177°
2026-05-09 20:32 -33.39515 -70.79376 1561 ft 2 kts 169°
2026-05-09 20:32 -33.39499 -70.79383 1561 ft 2 kts 134°
2026-05-09 20:32 -33.39496 -70.79387 1561 ft 0 kts 128°
2026-05-09 20:36 -33.39499 -70.79380 1561 ft 3 kts 121°
2026-05-09 20:36 -33.39503 -70.79372 1561 ft 0 kts 120°
2026-05-09 20:37 -33.39504 -70.79367 1561 ft 5 kts 111°
2026-05-09 20:37 -33.39507 -70.79253 1561 ft 22 kts 89°
2026-05-09 20:37 -33.39500 -70.79020 1562 ft 30 kts 87°
2026-05-09 20:37 -33.39451 -70.78850 1562 ft 13 kts 34°
2026-05-09 20:38 -33.39377 -70.78818 1562 ft 12 kts 20°
2026-05-09 20:38 -33.39284 -70.78799 1562 ft 19 kts
2026-05-09 20:38 -33.39124 -70.78808 1562 ft 24 kts 355°
2026-05-09 20:38 -33.38966 -70.78815 1561 ft 22 kts 358°
2026-05-09 20:39 -33.38819 -70.78821 1561 ft 20 kts 358°
2026-05-09 20:39 -33.38683 -70.78829 1561 ft 19 kts 357°
2026-05-09 20:39 -33.38558 -70.78838 1560 ft 17 kts 357°
2026-05-09 20:39 -33.38443 -70.78844 1560 ft 16 kts 357°
2026-05-09 20:40 -33.38343 -70.78851 1560 ft 13 kts 357°
2026-05-09 20:40 -33.38265 -70.78855 1560 ft 9 kts 357°
2026-05-09 20:40 -33.38216 -70.78858 1560 ft 7 kts 357°
2026-05-09 20:40 -33.38137 -70.78863 1560 ft 15 kts 357°
2026-05-09 20:41 -33.38012 -70.78870 1560 ft 21 kts 357°
2026-05-09 20:41 -33.37853 -70.78880 1560 ft 26 kts 357°
2026-05-09 20:41 -33.37658 -70.78894 1559 ft 30 kts 358°
2026-05-09 20:41 -33.37531 -70.78791 1559 ft 9 kts 81°
2026-05-09 20:42 -33.37532 -70.78785 1559 ft 0 kts 94°
2026-05-09 20:43 -33.37544 -70.78733 1559 ft 16 kts 113°
2026-05-09 20:43 -33.37624 -70.78672 1559 ft 0 kts 174°
2026-05-09 20:44 -33.37628 -70.78672 1559 ft 8 kts 174°
2026-05-09 20:44 -33.37952 -70.78654 1559 ft 82 kts 178°
2026-05-09 20:44 -33.38724 -70.78614 1561 ft 138 kts 178°
2026-05-09 20:45 -33.39828 -70.78531 1669 ft 175 kts 178°
2026-05-09 20:45 -33.41093 -70.78409 2208 ft 185 kts 180°
2026-05-09 20:45 -33.42416 -70.78335 2602 ft 199 kts 181°
2026-05-09 20:45 -33.43876 -70.78270 2799 ft 221 kts 180°
2026-05-09 20:46 -33.45497 -70.78195 3233 ft 240 kts 180°
2026-05-09 20:46 -33.47172 -70.78112 3995 ft 244 kts 180°
2026-05-09 20:46 -33.48834 -70.78486 4721 ft 244 kts 212°
2026-05-09 20:46 -33.49705 -70.79359 5080 ft 254 kts 235°
2026-05-09 20:47 -33.50391 -70.81325 5757 ft 261 kts 256°
2026-05-09 20:47 -33.50856 -70.83449 6619 ft 265 kts 256°
2026-05-09 20:47 -33.51324 -70.85618 7475 ft 269 kts 256°
2026-05-09 20:47 -33.51800 -70.87794 8329 ft 273 kts 256°
2026-05-09 20:48 -33.52298 -70.90019 8823 ft 278 kts 255°
2026-05-09 20:48 -33.52804 -70.92231 8962 ft 277 kts 255°
2026-05-09 20:48 -33.53323 -70.94457 8984 ft 277 kts 253°
2026-05-09 20:48 -33.54140 -70.96538 8987 ft 277 kts 236°
2026-05-09 20:49 -33.55472 -70.98219 9143 ft 286 kts 217°
2026-05-09 20:49 -33.57208 -70.99390 10027 ft 287 kts 208°
2026-05-09 20:49 -33.59048 -71.00499 10520 ft 305 kts 208°
2026-05-09 20:49 -33.60994 -71.01697 10804 ft 326 kts 208°
2026-05-09 20:50 -33.63064 -71.02972 11401 ft 336 kts 208°
2026-05-09 20:50 -33.65161 -71.04257 12112 ft 340 kts 208°
2026-05-09 20:50 -33.67279 -71.05546 12855 ft 343 kts 208°
2026-05-09 20:50 -33.69395 -71.06830 13547 ft 347 kts 208°
2026-05-09 20:51 -33.71556 -71.08141 14230 ft 350 kts 208°
2026-05-09 20:51 -33.73741 -71.09466 14865 ft 354 kts 208°
2026-05-09 20:51 -33.75955 -71.10812 15482 ft 359 kts 208°
2026-05-09 20:51 -33.78189 -71.12172 16146 ft 361 kts 208°
2026-05-09 20:52 -33.80439 -71.13545 16767 ft 365 kts 208°
2026-05-09 20:52 -33.82713 -71.14938 17336 ft 369 kts 208°
2026-05-09 20:52 -33.85012 -71.16345 17939 ft 372 kts 208°
2026-05-09 20:52 -33.87306 -71.17746 18522 ft 375 kts 208°
2026-05-09 20:53 -33.89640 -71.19173 19090 ft 377 kts 208°
2026-05-09 20:53 -33.91989 -71.20612 19624 ft 381 kts 208°
2026-05-09 20:53 -33.94372 -71.22068 20161 ft 383 kts 208°
2026-05-09 20:53 -33.96754 -71.23521 20645 ft 387 kts 208°
2026-05-09 20:54 -33.99180 -71.25003 21139 ft 391 kts 208°
2026-05-09 20:54 -34.01611 -71.26490 21646 ft 393 kts 208°
2026-05-09 20:54 -34.04056 -71.27989 22106 ft 396 kts 208°
2026-05-09 20:54 -34.06517 -71.29500 22583 ft 398 kts 208°
2026-05-09 20:55 -34.08994 -71.31019 23043 ft 400 kts 208°
2026-05-09 20:55 -34.11484 -71.32547 23474 ft 403 kts 208°
2026-05-09 20:55 -34.14000 -71.34091 23889 ft 406 kts 208°
2026-05-09 20:55 -34.16522 -71.35644 24321 ft 408 kts 208°
2026-05-09 20:56 -34.19063 -71.37209 24738 ft 411 kts 208°
2026-05-09 20:56 -34.24157 -71.40349 25516 ft 416 kts 208°
2026-05-09 20:56 -34.26756 -71.41955 25893 ft 418 kts 208°
2026-05-09 20:57 -34.29339 -71.43553 26260 ft 421 kts 208°
2026-05-09 20:57 -34.31964 -71.45177 26619 ft 423 kts 208°
2026-05-09 20:57 -34.34578 -71.46794 26972 ft 425 kts 208°
2026-05-09 20:57 -34.37237 -71.48440 27318 ft 428 kts 208°
2026-05-09 20:58 -34.39874 -71.50072 27662 ft 430 kts 208°
2026-05-09 20:58 -34.42552 -71.51727 27995 ft 432 kts 208°
2026-05-09 20:58 -34.45231 -71.53384 28325 ft 434 kts 208°
2026-05-09 20:58 -34.47936 -71.55060 28651 ft 437 kts 208°
2026-05-09 20:59 -34.50636 -71.56735 28958 ft 439 kts 208°
2026-05-09 20:59 -34.53379 -71.58441 29253 ft 441 kts 208°
2026-05-09 20:59 -34.56112 -71.60142 29541 ft 443 kts 208°
2026-05-09 21:00 -34.61624 -71.63572 29976 ft 446 kts 208°
2026-05-09 21:00 -34.64341 -71.65267 30009 ft 433 kts 208°
2026-05-09 21:00 -34.69636 -71.68571 30006 ft 424 kts 208°
2026-05-09 21:01 -34.74843 -71.71825 30002 ft 423 kts 208°
2026-05-09 21:02 -34.82696 -71.76734 30006 ft 423 kts 208°
2026-05-09 21:02 -34.87931 -71.80010 30014 ft 423 kts 208°
2026-05-09 21:03 -34.93170 -71.83290 30010 ft 423 kts 208°
2026-05-09 21:03 -34.98413 -71.86580 30009 ft 423 kts 208°
2026-05-09 21:04 -35.03609 -71.89858 30001 ft 422 kts 208°
2026-05-09 21:04 -35.08833 -71.93153 30001 ft 422 kts 208°
2026-05-09 21:05 -35.14057 -71.96451 30001 ft 422 kts 208°
2026-05-09 21:05 -35.19275 -71.99745 29996 ft 421 kts 208°
2026-05-09 21:06 -35.24462 -72.03027 29995 ft 421 kts 208°
2026-05-09 21:06 -35.29681 -72.06338 29993 ft 421 kts 208°
2026-05-09 21:07 -35.34882 -72.09640 29989 ft 421 kts 208°
2026-05-09 21:07 -35.40091 -72.12951 29987 ft 422 kts 208°
2026-05-09 21:08 -35.45303 -72.16275 29991 ft 422 kts 208°
2026-05-09 21:08 -35.50493 -72.19587 29989 ft 422 kts 208°
2026-05-09 21:09 -35.55710 -72.22917 29990 ft 422 kts 208°
2026-05-09 21:09 -35.60900 -72.26242 29990 ft 423 kts 208°
2026-05-09 21:10 -35.66126 -72.29597 29993 ft 423 kts 208°
2026-05-09 21:10 -35.71346 -72.32952 29996 ft 423 kts 208°
2026-05-09 21:11 -35.76542 -72.36296 29995 ft 422 kts 208°
2026-05-09 21:12 -35.89339 -72.45136 29426 ft 425 kts 222°
2026-05-09 21:12 -35.91428 -72.47713 28770 ft 423 kts 228°
2026-05-09 21:12 -35.93429 -72.50364 28245 ft 419 kts 228°
2026-05-09 21:13 -35.95414 -72.52973 27704 ft 416 kts 227°
2026-05-09 21:13 -35.97392 -72.55559 27172 ft 412 kts 227°
2026-05-09 21:13 -35.99352 -72.58110 26659 ft 408 kts 227°
2026-05-09 21:13 -36.01301 -72.60639 26148 ft 404 kts 227°
2026-05-09 21:14 -36.03225 -72.63135 25663 ft 399 kts 227°
2026-05-09 21:14 -36.05123 -72.65607 25183 ft 394 kts 227°
2026-05-09 21:14 -36.06997 -72.68053 24716 ft 389 kts 227°
2026-05-09 21:14 -36.08847 -72.70472 24251 ft 385 kts 227°
2026-05-09 21:15 -36.10655 -72.72843 23791 ft 381 kts 227°
2026-05-09 21:15 -36.12476 -72.75233 23333 ft 376 kts 227°
2026-05-09 21:15 -36.14252 -72.77570 22870 ft 373 kts 227°
2026-05-09 21:15 -36.16018 -72.79891 22419 ft 370 kts 227°
2026-05-09 21:16 -36.17779 -72.82204 21957 ft 367 kts 227°
2026-05-09 21:16 -36.19508 -72.84477 21504 ft 364 kts 227°
2026-05-09 21:16 -36.21259 -72.86776 21037 ft 362 kts 227°
2026-05-09 21:16 -36.22971 -72.89025 20585 ft 360 kts 228°
2026-05-09 21:17 -36.24667 -72.91261 20113 ft 357 kts 228°
2026-05-09 21:17 -36.26381 -72.93523 19647 ft 356 kts 228°
2026-05-09 21:17 -36.28058 -72.95739 19196 ft 354 kts 228°
2026-05-09 21:17 -36.29737 -72.97954 18730 ft 352 kts 226°
2026-05-09 21:18 -36.30319 -72.98653 18580 ft 352 kts 223°
2026-05-09 21:19 -36.30367 -72.98707 18566 ft 351 kts 222°
2026-05-09 21:19 -36.32377 -73.00452 18108 ft 351 kts 210°
2026-05-09 21:20 -36.34583 -73.01704 17651 ft 350 kts 202°
2026-05-09 21:20 -36.36848 -73.02769 17203 ft 349 kts 202°
2026-05-09 21:20 -36.39094 -73.03816 16762 ft 347 kts 202°
2026-05-09 21:20 -36.41349 -73.04860 16318 ft 345 kts 202°
2026-05-09 21:21 -36.43593 -73.05897 15880 ft 343 kts 202°
2026-05-09 21:21 -36.45829 -73.06931 15443 ft 342 kts 202°
2026-05-09 21:21 -36.48055 -73.07963 15008 ft 340 kts 202°
2026-05-09 21:21 -36.50249 -73.08984 14582 ft 338 kts 202°
2026-05-09 21:22 -36.52465 -73.10013 14139 ft 337 kts 202°
2026-05-09 21:22 -36.54661 -73.11030 13701 ft 335 kts 202°
2026-05-09 21:22 -36.56841 -73.12039 13269 ft 334 kts 202°
2026-05-09 21:22 -36.59000 -73.13041 12830 ft 332 kts 202°
2026-05-09 21:23 -36.61160 -73.14047 12384 ft 331 kts 202°
2026-05-09 21:23 -36.63311 -73.15048 11944 ft 329 kts 202°
2026-05-09 21:23 -36.65450 -73.16045 11500 ft 327 kts 202°
2026-05-09 21:23 -36.67577 -73.17035 11059 ft 326 kts 202°
2026-05-09 21:24 -36.69451 -73.17906 10651 ft 324 kts 202°
2026-05-09 21:24 -36.69625 -73.17986 10623 ft 324 kts 202°
2026-05-09 21:24 -36.71733 -73.18971 10228 ft 321 kts 202°
2026-05-09 21:24 -36.73774 -73.19950 10099 ft 309 kts 203°
2026-05-09 21:25 -36.75714 -73.20896 9973 ft 298 kts 203°
2026-05-09 21:25 -36.77619 -73.21828 9799 ft 289 kts 203°
2026-05-09 21:25 -36.79492 -73.22747 9437 ft 287 kts 203°
2026-05-09 21:25 -36.81348 -73.23659 9068 ft 286 kts 203°
2026-05-09 21:26 -36.83197 -73.24567 8697 ft 285 kts 203°
2026-05-09 21:26 -36.85058 -73.25482 8050 ft 292 kts 203°
2026-05-09 21:26 -36.86961 -73.26413 7572 ft 294 kts 203°
2026-05-09 21:26 -36.88845 -73.27330 7146 ft 285 kts 203°
2026-05-09 21:27 -36.90626 -73.28196 6774 ft 272 kts 203°
2026-05-09 21:27 -36.92414 -73.28738 6407 ft 262 kts 180°
2026-05-09 21:27 -36.94110 -73.28106 6044 ft 255 kts 147°
2026-05-09 21:27 -36.95246 -73.26450 5657 ft 256 kts 114°
2026-05-09 21:28 -36.95875 -73.24359 5266 ft 258 kts 113°
2026-05-09 21:28 -36.96521 -73.22272 4960 ft 257 kts 103°
2026-05-09 21:28 -36.96569 -73.20067 4658 ft 254 kts 78°
2026-05-09 21:28 -36.95925 -73.18030 4043 ft 255 kts 53°
2026-05-09 21:29 -36.94664 -73.16532 3570 ft 247 kts 28°
2026-05-09 21:29 -36.93154 -73.15603 3249 ft 238 kts 22°
2026-05-09 21:29 -36.91681 -73.14742 2930 ft 230 kts 22°
2026-05-09 21:29 -36.90253 -73.13906 2636 ft 223 kts 22°
2026-05-09 21:30 -36.88889 -73.13107 2348 ft 217 kts 22°
2026-05-09 21:30 -36.87538 -73.12316 2064 ft 209 kts 22°
2026-05-09 21:30 -36.86269 -73.11572 1805 ft 195 kts 21°
2026-05-09 21:30 -36.85087 -73.10881 1551 ft 180 kts 22°
2026-05-09 21:31 -36.83984 -73.10236 1309 ft 169 kts 22°
2026-05-09 21:31 -36.82946 -73.09629 1088 ft 160 kts 21°
2026-05-09 21:31 -36.81963 -73.09055 885 ft 154 kts 21°
2026-05-09 21:31 -36.81014 -73.08501 679 ft 153 kts 22°
2026-05-09 21:32 -36.80055 -73.07941 474 ft 151 kts 20°
2026-05-09 21:32 -36.79126 -73.07398 281 ft 146 kts 22°
2026-05-09 21:32 -36.78201 -73.06859 93 ft 147 kts 22°
2026-05-09 21:32 -36.77347 -73.06378 31 ft 106 kts 26°
2026-05-09 21:33 -36.76850 -73.06089 27 ft 54 kts 25°
2026-05-09 21:33 -36.76637 -73.05956 28 ft 16 kts 26°
2026-05-09 21:33 -36.76617 -73.05944 28 ft 0 kts 26°
2026-05-09 21:33 -36.76604 -73.05935 28 ft 9 kts 26°
2026-05-09 21:34 -36.76496 -73.05869 28 ft 25 kts 26°
2026-05-09 21:34 -36.76299 -73.05753 29 ft 35 kts 25°
2026-05-09 21:34 -36.76123 -73.05648 26 ft 16 kts 24°
2026-05-09 21:34 -36.76085 -73.05657 26 ft 1 kts 294°
2026-05-09 21:35 -36.76101 -73.05681 27 ft 9 kts 223°
2026-05-09 21:35 -36.76208 -73.05734 26 ft 23 kts 202°
2026-05-09 21:35 -36.76364 -73.05756 30 ft 18 kts 145°
2026-05-09 21:35 -36.76428 -73.05624 26 ft 29 kts 132°
2026-05-09 21:36 -36.76571 -73.05617 27 ft 23 kts 218°
2026-05-09 21:36 -36.76703 -73.05742 27 ft 23 kts 206°
2026-05-09 21:36 -36.76846 -73.05822 28 ft 22 kts 204°
2026-05-09 21:36 -36.76977 -73.05896 29 ft 20 kts 207°
2026-05-09 21:37 -36.77095 -73.05973 29 ft 18 kts 208°
2026-05-09 21:37 -36.77205 -73.06036 30 ft 17 kts 204°
2026-05-09 21:37 -36.77306 -73.06094 30 ft 15 kts 205°
2026-05-09 21:37 -36.77395 -73.06146 31 ft 13 kts 205°
2026-05-09 21:38 -36.77468 -73.06177 31 ft 9 kts 176°
2026-05-09 21:38 -36.77504 -73.06145 30 ft 6 kts 132°
2026-05-09 21:38 -36.77536 -73.06086 31 ft 10 kts 119°
2026-05-09 21:38 -36.77577 -73.05996 30 ft 14 kts 119°
2026-05-09 21:39 -36.77625 -73.05940 31 ft 6 kts 176°
2026-05-09 21:39 -36.77628 -73.05940 31 ft 0 kts 177°